Lid_Strength_Index
2 2 2 2 2 2 2 2 2 2 2 2 2 2 3 3 3 2 2 2 2 2 2 2 2 1 2 6 6 3 -2 -2 -1 4 4 4 4 5 7 6 6 6 7 6 5 6 6
2 2 2 2 2 2 2 2 2 2 2 2 2 3 3 3 3 2 2 2 3 2 2 2 1 1 4 7 3 1 -0 1 3 4 5 4 4 3 6 7 6 6 6 6 6 6 6
2 2 2 2 2 2 2 2 2 2 2 2 3 3 3 3 3 3 3 3 3 3 2 2 1 1 5 6 3 3 4 3 3 4 5 4 3 4 5 7 5 6 8 6 7 6 7
2 2 2 2 2 2 2 2 2 3 3 3 3 3 3 3 3 4 4 4 3 2 2 1 1 2 7 4 3 3 3 4 4 4 4 3 2 4 6 6 7 7 8 9 6 7 6
2 2 2 2 2 2 2 2 3 3 3 3 3 3 4 4 4 4 5 4 2 1 0 1 3 5 7 2 4 3 3 3 4 4 4 3 4 5 6 8 9 8 10 9 8 6 8
2 2 2 2 2 2 2 3 3 3 3 3 4 4 4 4 4 5 5 4 1 0 1 0 2 5 5 5 4 4 4 3 4 4 4 5 5 6 7 8 11 10 9 9 9 7 7
2 2 2 2 2 2 2 3 3 3 3 4 4 4 4 4 5 5 5 3 4 5 3 7 7 7 5 3 2 5 4 4 4 4 6 6 7 8 7 8 8 9 9 9 7 6 7
3 3 3 3 2 3 3 3 3 3 3 4 4 4 4 5 5 5 5 5 4 4 6 4 5 6 5 4 5 4 4 5 6 7 6 6 8 6 6 8 9 9 8 8 7 6 7
3 3 3 3 3 3 3 3 3 3 3 4 4 4 5 5 5 6 6 5 3 3 6 5 5 5 5 4 5 5 4 5 6 7 7 8 7 6 7 8 9 8 9 8 9 7 7
2 2 3 3 3 3 3 3 3 4 4 5 4 5 5 6 6 5 4 3 3 3 7 7 6 5 5 4 5 3 4 4 6 7 7 7 5 6 7 8 8 9 7 8 8 9 11
2 2 3 3 3 3 3 3 4 4 4 5 5 5 5 6 5 5 4 3 4 5 13 6 6 3 5 6 5 5 4 4 6 7 6 8 7 7 8 8 7 8 7 8 8 9 9
2 2 2 3 3 3 3 3 4 4 4 5 5 6 6 7 6 4 3 3 4 9 14 8 6 7 7 6 6 6 5 4 5 6 7 6 6 6 6 7 7 6 7 8 9 9 12
2 2 3 3 3 3 4 3 4 4 5 5 6 6 6 5 4 3 3 4 9 12 7 8 8 7 8 8 7 7 7 7 8 10 9 8 7 6 6 7 6 7 8 12 12 12 13
2 3 3 3 3 3 3 4 4 4 5 5 7 6 6 5 3 3 3 6 12 9 9 6 7 8 9 8 8 8 8 8 8 8 9 10 11 8 7 7 8 8 8 11 15 14 12
3 3 3 3 3 3 3 4 4 5 5 6 8 5 4 2 4 4 4 9 10 9 7 8 7 9 9 7 7 8 8 9 8 8 10 10 10 7 7 6 6 8 10 8 11 12 12
2 3 3 3 3 3 3 4 4 5 6 7 4 2 2 2 3 3 6 10 8 7 7 7 9 8 10 9 9 8 9 7 8 7 7 9 11 8 7 7 7 7 7 10 10 14 15
3 3 3 3 3 3 4 4 4 5 6 7 3 4 2 2 2 4 8 8 7 6 7 7 8 9 9 9 9 9 9 8 7 7 6 7 10 9 8 8 8 9 9 10 10 10 13
3 3 3 3 4 4 3 4 5 6 6 6 4 7 2 3 6 7 8 7 8 8 7 7 7 7 8 9 9 9 9 8 7 6 8 7 9 11 10 7 8 8 9 9 11 12 12
4 3 3 3 4 4 4 4 5 6 6 5 5 5 3 3 8 7 7 8 8 8 8 8 9 8 8 9 10 8 8 7 7 6 7 7 10 12 11 9 7 9 9 9 11 11 11
4 4 3 3 4 4 4 4 5 6 6 5 6 7 5 6 7 8 9 9 9 8 8 8 9 8 9 9 8 9 9 8 7 7 6 6 9 10 12 11 10 11 10 9 9 12 11
4 4 3 3 4 4 4 4 5 5 5 4 6 8 8 8 8 8 9 9 9 9 8 7 8 9 9 10 10 9 9 8 8 6 6 7 10 9 9 8 9 9 10 9 10 10 12
4 4 4 4 4 4 4 4 5 6 6 5 7 7 7 8 9 9 10 9 10 9 9 9 9 8 8 9 9 9 9 8 8 7 8 7 10 9 10 9 9 10 9 9 9 9 10
4 4 4 4 4 4 4 4 5 6 6 6 6 6 7 10 9 9 9 9 9 8 7 7 7 8 8 7 7 6 6 6 6 8 8 8 9 11 12 10 10 11 9 8 8 7 8
4 4 4 4 4 4 4 5 5 6 7 6 7 7 9 11 9 9 9 9 9 8 8 7 6 7 6 5 5 6 7 7 7 7 7 8 9 10 12 11 15 9 6 7 8 8 8
4 4 4 5 5 5 4 4 5 5 6 7 7 7 8 10 9 9 9 9 8 8 8 8 7 6 5 6 8 9 9 9 8 8 8 7 8 11 13 13 10 9 9 10 11 10 8
5 4 4 4 4 5 5 5 5 5 6 6 7 6 6 8 9 8 8 8 9 8 8 7 6 5 5 7 8 12 12 11 11 10 7 8 7 10 12 14 15 10 8 6 8 12 7
4 4 4 4 4 4 3 3 4 4 5 6 6 6 6 8 7 7 8 8 7 8 8 8 7 7 6 8 10 11 11 10 12 13 12 11 11 12 12 13 11 8 7 6 13 11 6
3 3 3 3 3 3 3 3 4 4 4 6 7 6 6 8 7 7 6 7 7 7 8 8 8 7 7 10 10 10 11 10 11 10 11 12 12 12 13 14 15 7 7 10 8 6 6
3 3 3 3 3 3 3 3 4 4 4 5 7 6 6 7 7 6 5 5 5 5 7 7 7 7 6 8 8 8 10 9 11 13 8 12 10 11 11 11 7 5 6 5 5 6 5